Starlink 5311

operational
NORAD ID: 55288 Int'l Des: 2023-010 Owner: SPXS Country: US Constellation: starlink
LEOCIRCULAR

Starlink 5311について

説明を読み込み中...

リアルタイム位置

3D地球を読み込み中...

次回通過

高度履歴

Altitude vs Time

uPlot chart will show altitude changes over time

軌道要素

1 55288U 23010V 25303.26827188 .00000717 00000-0 67915-4 0 9996
2 55288 70.0003 353.2821 0003117 267.3537 92.7265 14.98317316153732
Epoch: Oct 30, 2025 • Age: 20 hours

現在のステータス

高度 595.0 km
速度 7.56 km/s
衛星直下点 -68.33°S, 154.7°E
打ち上げ日 Jan 19, 2023
運用期間 2.7 years
タイプ internet

技術仕様

分類 Payload
質量 305.00 kg
乾燥質量 290.00 kg
総質量 305.00 kg
長さ 0.20 m
直径 2.80 m
スパン 9.00 m
形状 Box + pan
製造者 SPXS
バスタイプ Starlink
フェーズステータス In Orbit
所有者/国 SPXS/US

大規模コンステレーション

Loading constellations...